THY3AT LTFM-LOWW

Flight info

Callsign THY3AT
Flight time N/A
Altitude 34000
Route TUDBU Q26 ETUBA DCT DEGET DCT BALUX DCT TORNO DCT NATEX NATEX2W
Aircraft A321/M-SDE3FGHIRWY/LB1

Departure

Time N/A
Airport İstanbul Airport (LTFM)

Arrival

Time 2026-04-20 21:53
Airport Vienna International Airport (LOWW)
Time Latitude Longitude Altitude Speed Heading
2026-04-20 21:47 47.99404 16.92257 4007 ft 243 kts 298°
2026-04-20 21:47 48.00146 16.90051 3905 ft 232 kts 300°
2026-04-20 21:47 48.00890 16.87986 3820 ft 222 kts 299°
2026-04-20 21:47 48.01589 16.85937 3727 ft 221 kts 298°
2026-04-20 21:48 48.02272 16.83875 3630 ft 221 kts 298°
2026-04-20 21:48 48.02938 16.81855 3549 ft 212 kts 298°
2026-04-20 21:48 48.03574 16.79923 3461 ft 200 kts 298°
2026-04-20 21:48 48.04160 16.78139 3322 ft 183 kts 298°
2026-04-20 21:49 48.04698 16.76502 3214 ft 167 kts 298°
2026-04-20 21:49 48.05189 16.75010 3089 ft 158 kts 298°
2026-04-20 21:49 48.05668 16.73552 2914 ft 155 kts 298°
2026-04-20 21:49 48.06142 16.72110 2722 ft 154 kts 298°
2026-04-20 21:50 48.06611 16.70682 2539 ft 153 kts 299°
2026-04-20 21:50 48.07077 16.69261 2341 ft 150 kts 298°
2026-04-20 21:50 48.07530 16.67878 2132 ft 147 kts 298°
2026-04-20 21:50 48.07977 16.66515 1935 ft 146 kts 298°
2026-04-20 21:51 48.08422 16.65154 1731 ft 145 kts 298°
2026-04-20 21:51 48.08865 16.63801 1537 ft 145 kts 298°
2026-04-20 21:51 48.09307 16.62447 1347 ft 145 kts 298°
2026-04-20 21:51 48.09748 16.61095 1138 ft 144 kts 298°
2026-04-20 21:52 48.10190 16.59751 939 ft 144 kts 298°
2026-04-20 21:52 48.10624 16.58421 770 ft 144 kts 298°
2026-04-20 21:52 48.11070 16.57059 624 ft 139 kts 298°
2026-04-20 21:52 48.11436 16.55941 613 ft 88 kts 294°
2026-04-20 21:53 48.11589 16.55470 617 ft 33 kts 301°
2026-04-20 21:53 48.11727 16.55250 614 ft 17 kts 316°
2026-04-20 21:53 48.11807 16.55153 609 ft 15 kts 336°
2026-04-20 21:53 48.11869 16.55154 615 ft 8 kts 32°
2026-04-20 21:54 48.11873 16.55235 622 ft 9 kts 115°
2026-04-20 21:54 48.11842 16.55330 609 ft 11 kts 116°
2026-04-20 21:54 48.11805 16.55442 623 ft 13 kts 116°
2026-04-20 21:54 48.11764 16.55570 609 ft 15 kts 116°
2026-04-20 21:55 48.11717 16.55714 623 ft 16 kts 116°
2026-04-20 21:55 48.11665 16.55872 622 ft 18 kts 116°
2026-04-20 21:55 48.11615 16.56026 616 ft 16 kts 116°
2026-04-20 21:55 48.11587 16.56150 609 ft 12 kts 79°
2026-04-20 21:56 48.11651 16.56237 617 ft 13 kts 35°
2026-04-20 21:56 48.11709 16.56282 612 ft 9 kts 26°
2026-04-20 21:56 48.11753 16.56314 613 ft 7 kts 24°
2026-04-20 21:56 48.11796 16.56289 609 ft 8 kts 300°
2026-04-20 21:57 48.11822 16.56223 613 ft 4 kts 303°
2026-04-20 21:57 48.11823 16.56220 612 ft 0 kts 303°